Imperial, CA

9:25 PM PST on December 14, 2017 (GMT -0800)
Imperial County

Weather History for KIPL - August, 2013

Change the Weather History Date:

Saturday, August 24, 2013

  Actual Average Record
Temperature  
Mean Temperature 88 °F -  
Max Temperature 100 °F 104 °F 117 °F (1985)
Min Temperature 77 °F 77 °F 65 °F (1968)
Cooling Degree Days 23    
Growing Degree Days 38 (Base 50)    
Moisture  
Dew Point 71 °F    
Average Humidity 62    
Maximum Humidity 82    
Minimum Humidity 39    
Precipitation  
Precipitation 0.01 in - - ()
Sea Level Pressure  
Sea Level Pressure 29.76 in    
Wind  
Wind Speed 12 mph (ESE)    
Max Wind Speed 21 mph    
Max Gust Speed 33 mph    
Visibility 8 miles    
Events Rain , Thunderstorm    
Averages and records for this station are not official NWS values.
T = Trace of Precipitation, MM = Missing Value Source: NWS Daily Summary

Daily Weather History Graph

Daily Weather History Graph

Search for Another Location

Airport or City:

Trip Planner

Search our weather history database for the weather conditions in past years. The results will help you decide how hot, cold, wet, or windy it might be!

Date:

Astronomy

Aug. 24, 2013 Rise Set
Actual Time 6:11 AM PDT 7:16 PM PDT
Civil Twilight 5:46 AM PDT 7:42 PM PDT
Nautical Twilight 5:16 AM PDT 8:12 PM PDT
Astronomical Twilight 4:44 AM PDT 8:43 PM PDT
Moon 9:31 PM PDT (8/24) 9:59 AM PDT (8/24)
Length of Visible Light 13h 55m
Length of Day
13h 04m
Waning Gibbous, 83% of the Moon is Illuminated
Aug 24
Waning Gibbous
Aug 28
Last Quarter
Sep 5
New
Sep 12
First Quarter
Sep 19
Full

Hourly Weather History & Observations

Time (PDT) Temp. Heat Index Dew Point Humidity Pressure Visibility Wind Dir Wind Speed Gust Speed Precip Events Conditions
12:53 AM 91.0 °F 95.6 °F 69.1 °F 48% 29.68 in 10.0 mi South 8.1 mph - N/A   Clear
1:53 AM 90.0 °F 94.5 °F 69.1 °F 50% 29.69 in 10.0 mi SSE 13.8 mph - N/A   Clear
2:53 AM 88.0 °F 94.7 °F 72.0 °F 59% 29.70 in 10.0 mi SE 11.5 mph - N/A   Clear
3:53 AM 86.0 °F 95.1 °F 75.0 °F 70% 29.69 in 10.0 mi South 5.8 mph - N/A   Clear
4:53 AM 84.9 °F 93.3 °F 75.0 °F 72% 29.70 in 10.0 mi ESE 12.7 mph - N/A   Clear
5:53 AM 84.0 °F 91.2 °F 73.9 °F 72% 29.71 in 10.0 mi ESE 8.1 mph - N/A   Clear
6:53 AM 84.0 °F 91.9 °F 75.0 °F 74% 29.73 in 10.0 mi ESE 9.2 mph - N/A   Clear
7:53 AM 86.0 °F 95.1 °F 75.0 °F 70% 29.74 in 10.0 mi SE 9.2 mph - N/A   Clear
8:53 AM 91.0 °F 101.6 °F 75.0 °F 59% 29.75 in 10.0 mi SSE 16.1 mph - N/A   Clear
9:53 AM 93.0 °F 105.3 °F 75.9 °F 57% 29.78 in 10.0 mi SE 15.0 mph 21.9 mph N/A   Clear
10:53 AM 96.1 °F 107.1 °F 73.9 °F 49% 29.78 in 10.0 mi SE 18.4 mph 24.2 mph N/A   Partly Cloudy
11:53 AM 97.0 °F 107.7 °F 73.9 °F 47% 29.78 in 10.0 mi ESE 20.7 mph 26.5 mph N/A   Scattered Clouds
12:53 PM 99.0 °F 107.0 °F 71.1 °F 40% 29.74 in 10.0 mi SE 17.3 mph 27.6 mph N/A Thunderstorm Clear
1:06 PM 98.6 °F 105.5 °F 69.8 °F 39% 29.74 in 10.0 mi SE 18.4 mph - N/A Thunderstorm Partly Cloudy
1:53 PM 93.9 °F 103.4 °F 73.0 °F 51% 29.73 in 10.0 mi SSE 15.0 mph - 0.00 in Rain , Thunderstorm Light Thunderstorms and Rain
2:53 PM 88.0 °F 97.5 °F 75.0 °F 65% 29.72 in 10.0 mi SSW 11.5 mph - 0.00 in   Scattered Clouds
3:00 PM 86.0 °F 93.4 °F 73.4 °F 66% 29.74 in 2.0 mi WNW 13.8 mph 24.2 mph N/A   Haze
3:03 PM 86.0 °F 91.8 °F 71.6 °F 62% 29.74 in 0.8 mi NW 10.4 mph 24.2 mph N/A   Haze
3:08 PM 87.8 °F 91.4 °F 68.0 °F 52% 29.75 in 0.2 mi NW 19.6 mph 32.2 mph N/A Thunderstorm Haze
3:37 PM 80.6 °F 82.7 °F 66.2 °F 61% 29.79 in 1.0 mi North 16.1 mph 33.4 mph N/A Thunderstorm Unknown
3:40 PM 80.6 °F 82.7 °F 66.2 °F 61% 29.79 in 2.0 mi North 16.1 mph 33.4 mph N/A Thunderstorm Unknown
3:44 PM 80.6 °F 83.2 °F 68.0 °F 65% 29.80 in 4.0 mi NNE 19.6 mph 24.2 mph 0.00 in Rain , Thunderstorm Light Thunderstorms and Rain
3:53 PM 78.1 °F - 71.1 °F 79% 29.79 in 8.0 mi NNE 10.4 mph 19.6 mph 0.00 in Rain , Thunderstorm Light Rain
4:43 PM 77.0 °F - 69.8 °F 78% 29.78 in 10.0 mi NE 13.8 mph - 0.01 in   Mostly Cloudy
4:53 PM 77.0 °F - 71.1 °F 82% 29.81 in 10.0 mi ENE 13.8 mph 25.3 mph 0.01 in Rain Light Rain
5:53 PM 80.1 °F 82.1 °F 66.0 °F 62% 29.78 in 10.0 mi ENE 8.1 mph - 0.00 in   Clear
6:53 PM 81.0 °F 83.0 °F 66.0 °F 60% 29.81 in 10.0 mi WSW 3.5 mph - N/A   Clear
7:53 PM 80.1 °F 82.7 °F 68.0 °F 67% 29.82 in 10.0 mi WSW 4.6 mph - N/A   Clear
8:53 PM 80.1 °F 82.9 °F 69.1 °F 69% 29.83 in 10.0 mi WSW 6.9 mph - N/A   Clear
9:53 PM 81.0 °F 84.1 °F 69.1 °F 67% 29.84 in 10.0 mi SE 3.5 mph - N/A   Clear
10:53 PM 79.0 °F - 70.0 °F 74% 29.83 in 10.0 mi NNE 4.6 mph - N/A   Clear
11:53 PM 78.1 °F - 68.0 °F 71% 29.81 in 10.0 mi NNW 5.8 mph - N/A   Clear